Location: Kott?ru
(16.6209°N, 80.6208°E)
Time: 14:00:18
(UTC+00:00)

XW-2C - Pass Details

Date: 21 April 2024
Orbit: 437 x 450 km, 97.5° (Epoch: 21 May)

Event Time Altitude Azimuth Distance (km) Brightness Sun altitude
Rises 13:16:33 0° 183° (S) 2,478 ? -6.0°
Reaches altitude 10° 13:18:42 10° 192° (SSW) 1,603 ? -6.5°
Maximum altitude 13:21:53 35° 260° (W) 752 ? -7.2°
Drops below altitude 10° 13:25:04 10° 328° (NNW) 1,598 ? -7.9°
Sets 13:27:12 0° 337° (NNW) 2,469 ? -8.4°
